• Em Portugal
  • Lista de países
  • Para 7 dias
  • Temperatura da água
  • Mapas de satélite
  • Mapa do tempo
  • Widgets de tempo
  • user-avatar
    Iniciar Sessão

    Previsão horária em Marijampolė

    Hoje, 26 Setembro, Quarta-feira

    Tempo Temperatura Precipitação Vento Pressão Humidade
    00:00 +4°C° 0 mm 3 m/s 767 mmHg 82%
    01:00 +4°C° 0 mm 3 m/s 767 mmHg 82%
    02:00 +3°C° 0 mm 3 m/s 767 mmHg 82%
    03:00 +4°C° 0 mm 4 m/s 767 mmHg 79%
    04:00 +4°C° 0 mm 4 m/s 767 mmHg 76%
    05:00 +4°C° 0 mm 4 m/s 766 mmHg 72%
    06:00 +3°C° 0 mm 5 m/s 766 mmHg 71%
    07:00 +5°C° 0 mm 5 m/s 766 mmHg 69%
    08:00 +5°C° 0 mm 6 m/s 766 mmHg 68%
    09:00 +7°C° 0 mm 6 m/s 765 mmHg 67%
    10:00 +8°C° 0 mm 7 m/s 765 mmHg 65%
    11:00 +10°C° 0 mm 7 m/s 764 mmHg 64%
    12:00 +9°C° 0.1 mm 7 m/s 764 mmHg 66%
    13:00 +9°C° 0.1 mm 7 m/s 763 mmHg 68%
    14:00 +9°C° 0.1 mm 8 m/s 762 mmHg 69%
    15:00 +7°C° 0.3 mm 8 m/s 762 mmHg 71%
    16:00 +7°C° 0.3 mm 8 m/s 761 mmHg 73%
    17:00 +7°C° 0.3 mm 8 m/s 760 mmHg 75%
    18:00 +6°C° 0.5 mm 8 m/s 759 mmHg 78%
    19:00 +6°C° 0.5 mm 9 m/s 759 mmHg 81%
    20:00 +6°C° 0.5 mm 9 m/s 758 mmHg 84%
    21:00 +6°C° 0.3 mm 9 m/s 757 mmHg 85%
    22:00 +7°C° 0.3 mm 9 m/s 756 mmHg 85%
    23:00 +7°C° 0.3 mm 9 m/s 756 mmHg 85%

    Amanhã, 27 Setembro, Quinta-feira

    Tempo Temperatura Precipitação Vento Pressão Humidade
    00:00 +8°C° 0.3 mm 9 m/s 755 mmHg 87%
    01:00 +10°C° 0.3 mm 8 m/s 755 mmHg 88%
    02:00 +11°C° 0.3 mm 8 m/s 754 mmHg 89%
    03:00 +12°C° 0.3 mm 8 m/s 754 mmHg 89%
    04:00 +12°C° 0.3 mm 7 m/s 754 mmHg 90%
    05:00 +14°C° 0.3 mm 6 m/s 754 mmHg 90%
    06:00 +13°C° 0.1 mm 6 m/s 754 mmHg 89%
    07:00 +13°C° 0.1 mm 6 m/s 755 mmHg 88%
    08:00 +13°C° 0.1 mm 5 m/s 755 mmHg 86%
    09:00 +13°C° 0 mm 6 m/s 755 mmHg 81%
    10:00 +14°C° 0 mm 7 m/s 756 mmHg 75%
    11:00 +15°C° 0 mm 7 m/s 756 mmHg 69%
    12:00 +15°C° 0 mm 7 m/s 756 mmHg 65%
    13:00 +16°C° 0 mm 7 m/s 756 mmHg 62%
    14:00 +16°C° 0 mm 7 m/s 756 mmHg 58%
    15:00 +16°C° 0 mm 7 m/s 756 mmHg 62%
    16:00 +15°C° 0 mm 6 m/s 756 mmHg 66%
    17:00 +15°C° 0 mm 5 m/s 756 mmHg 71%
    18:00 +15°C° 0 mm 6 m/s 756 mmHg 75%
    19:00 +14°C° 0 mm 6 m/s 755 mmHg 80%
    20:00 +14°C° 0 mm 6 m/s 755 mmHg 85%
    21:00 +15°C° 0 mm 7 m/s 754 mmHg 84%
    22:00 +15°C° 0 mm 7 m/s 754 mmHg 83%
    23:00 +15°C° 0 mm 7 m/s 753 mmHg 82%

    Depois de amanhã, 28 Setembro, Sexta-feira

    Tempo Temperatura Precipitação Vento Pressão Humidade
    00:00 +15°C° 0.1 mm 8 m/s 753 mmHg 82%
    01:00 +15°C° 0.1 mm 8 m/s 752 mmHg 82%
    02:00 +16°C° 0.1 mm 8 m/s 751 mmHg 83%
    03:00 +15°C° 0.5 mm 8 m/s 750 mmHg 84%
    04:00 +15°C° 0.5 mm 8 m/s 750 mmHg 85%
    05:00 +15°C° 0.5 mm 8 m/s 749 mmHg 86%
    06:00 +14°C° 0.4 mm 7 m/s 750 mmHg 85%
    07:00 +13°C° 0.4 mm 6 m/s 750 mmHg 83%
    08:00 +11°C° 0.4 mm 6 m/s 751 mmHg 81%
    09:00 +13°C° 0 mm 6 m/s 751 mmHg 75%
    10:00 +13°C° 0 mm 6 m/s 752 mmHg 69%
    11:00 +13°C° 0 mm 6 m/s 753 mmHg 63%
    12:00 +14°C° 0.1 mm 6 m/s 753 mmHg 61%
    13:00 +14°C° 0.1 mm 6 m/s 753 mmHg 58%
    14:00 +14°C° 0.1 mm 6 m/s 753 mmHg 56%
    15:00 +14°C° 0.1 mm 5 m/s 754 mmHg 59%
    16:00 +13°C° 0.1 mm 4 m/s 754 mmHg 62%
    17:00 +12°C° 0.1 mm 4 m/s 754 mmHg 65%
    18:00 +11°C° 0 mm 3 m/s 755 mmHg 71%
    19:00 +10°C° 0 mm 3 m/s 755 mmHg 77%
    20:00 +8°C° 0 mm 2 m/s 756 mmHg 83%
    21:00 +8°C° 0 mm 2 m/s 756 mmHg 84%
    22:00 +7°C° 0 mm 2 m/s 756 mmHg 86%
    23:00 +7°C° 0 mm 2 m/s 757 mmHg 88%

    29 Setembro, Sábado

    Tempo Temperatura Precipitação Vento Pressão Humidade
    00:00 +6°C° 0 mm 2 m/s 757 mmHg 89%
    01:00 +6°C° 0 mm 2 m/s 757 mmHg 90%
    02:00 +5°C° 0 mm 2 m/s 758 mmHg 91%
    03:00 +5°C° 0 mm 2 m/s 758 mmHg 91%
    04:00 +5°C° 0 mm 2 m/s 758 mmHg 91%
    05:00 +4°C° 0 mm 2 m/s 758 mmHg 91%
    06:00 +5°C° 0 mm 2 m/s 759 mmHg 87%
    07:00 +6°C° 0 mm 2 m/s 759 mmHg 84%
    08:00 +6°C° 0 mm 2 m/s 759 mmHg 80%
    09:00 +8°C° 0 mm 3 m/s 760 mmHg 72%
    10:00 +9°C° 0 mm 3 m/s 760 mmHg 65%
    11:00 +11°C° 0 mm 4 m/s 761 mmHg 57%
    12:00 +11°C° 0 mm 4 m/s 761 mmHg 55%
    13:00 +12°C° 0 mm 4 m/s 761 mmHg 52%
    14:00 +12°C° 0 mm 4 m/s 761 mmHg 49%
    15:00 +12°C° 0 mm 3 m/s 762 mmHg 52%
    16:00 +11°C° 0 mm 3 m/s 762 mmHg 55%
    17:00 +12°C° 0 mm 2 m/s 762 mmHg 57%
    18:00 +9°C° 0 mm 2 m/s 762 mmHg 61%
    19:00 +8°C° 0 mm 2 m/s 763 mmHg 66%
    20:00 +6°C° 0 mm 2 m/s 763 mmHg 70%
    21:00 +7°C° 0 mm 1 m/s 763 mmHg 71%
    22:00 +6°C° 0 mm 1 m/s 764 mmHg 72%
    23:00 +6°C° 0 mm 1 m/s 764 mmHg 74%

    30 Setembro, Domingo

    Tempo Temperatura Precipitação Vento Pressão Humidade
    00:00 +5°C° 0 mm 1 m/s 764 mmHg 74%
    01:00 +5°C° 0 mm 1 m/s 764 mmHg 74%
    02:00 +5°C° 0 mm 1 m/s 764 mmHg 74%
    03:00 +4°C° 0 mm 2 m/s 763 mmHg 74%
    04:00 +4°C° 0 mm 2 m/s 763 mmHg 74%
    05:00 +4°C° 0 mm 2 m/s 763 mmHg 75%
    06:00 +3°C° 0 mm 3 m/s 763 mmHg 72%
    07:00 +4°C° 0 mm 3 m/s 763 mmHg 70%
    08:00 +5°C° 0 mm 4 m/s 763 mmHg 67%
    09:00 +7°C° 0 mm 4 m/s 763 mmHg 62%
    10:00 +8°C° 0 mm 5 m/s 762 mmHg 57%
    11:00 +10°C° 0 mm 5 m/s 762 mmHg 52%
    12:00 +12°C° 0 mm 5 m/s 762 mmHg 51%
    13:00 +13°C° 0 mm 5 m/s 761 mmHg 49%
    14:00 +13°C° 0 mm 5 m/s 761 mmHg 48%
    15:00 +13°C° 0 mm 4 m/s 761 mmHg 51%
    16:00 +12°C° 0 mm 4 m/s 760 mmHg 55%
    17:00 +12°C° 0 mm 3 m/s 760 mmHg 59%
    18:00 +11°C° 0 mm 3 m/s 760 mmHg 63%
    19:00 +9°C° 0 mm 3 m/s 760 mmHg 67%
    20:00 +8°C° 0 mm 3 m/s 760 mmHg 71%
    21:00 +8°C° 0 mm 3 m/s 759 mmHg 71%
    22:00 +8°C° 0 mm 3 m/s 759 mmHg 72%
    23:00 +7°C° 0 mm 3 m/s 759 mmHg 72%

    1 Outubro, Segunda-feira

    Tempo Temperatura Precipitação Vento Pressão Humidade
    00:00 +7°C° 0 mm 3 m/s 759 mmHg 73%
    01:00 +7°C° 0 mm 3 m/s 758 mmHg 74%
    02:00 +5°C° 0 mm 3 m/s 758 mmHg 74%
    03:00 +5°C° 0 mm 3 m/s 758 mmHg 75%
    04:00 +5°C° 0 mm 3 m/s 757 mmHg 76%
    05:00 +4°C° 0 mm 3 m/s 757 mmHg 76%
    06:00 +5°C° 0 mm 3 m/s 757 mmHg 74%
    07:00 +5°C° 0 mm 3 m/s 757 mmHg 71%
    08:00 +7°C° 0 mm 3 m/s 757 mmHg 69%
    09:00 +8°C° 0 mm 4 m/s 756 mmHg 63%
    10:00 +11°C° 0 mm 4 m/s 756 mmHg 57%
    11:00 +13°C° 0 mm 4 m/s 756 mmHg 51%
    12:00 +13°C° 0 mm 4 m/s 755 mmHg 49%
    13:00 +14°C° 0 mm 3 m/s 755 mmHg 47%
    14:00 +16°C° 0 mm 3 m/s 754 mmHg 45%
    15:00 +14°C° 0 mm 3 m/s 754 mmHg 50%
    16:00 +14°C° 0 mm 2 m/s 754 mmHg 55%
    17:00 +14°C° 0 mm 2 m/s 753 mmHg 60%
    18:00 +13°C° 0 mm 2 m/s 753 mmHg 64%
    19:00 +12°C° 0 mm 2 m/s 753 mmHg 68%
    20:00 +10°C° 0 mm 2 m/s 753 mmHg 72%
    21:00 +10°C° 0 mm 2 m/s 753 mmHg 76%
    22:00 +9°C° 0 mm 2 m/s 752 mmHg 80%
    23:00 +9°C° 0 mm 2 m/s 752 mmHg 84%
    Mostrar mais